Temp
10 10 10 10 10 10 10 10 10 10 10 10 10 9 9 9 9 9 9 9 9 10 10 10 10 10 10 10 10 10 9 9 9 10 10 10 10 10 10 9 9 10
10 10 10 10 10 10 10 10 10 10 10 10 10 10 10 10 10 9 9 10 10 10 10 10 10 10 10 10 10 10 10 9 9 10 10 10 10 10 10 10 10 10
10 10 10 10 10 10 10 10 10 10 10 10 10 10 10 10 10 10 10 10 10 10 10 10 10 10 10 10 10 10 10 10 10 10 10 10 10 10 10 10 10 10
11 10 10 10 10 10 10 10 10 10 10 10 10 10 10 10 10 10 10 10 10 10 10 10 10 10 10 10 10 10 10 10 10 10 10 10 10 10 10 10 10 10
11 11 10 10 10 10 10 10 10 10 10 10 10 10 10 10 10 10 10 10 10 10 10 10 10 10 10 10 10 10 10 10 10 10 10 10 10 10 10 10 10 10
11 11 10 10 10 10 10 10 10 10 10 10 10 10 10 10 10 10 10 10 10 10 10 10 10 10 10 10 10 10 10 10 10 10 10 10 10 10 10 10 10 10
10 11 10 10 10 10 10 10 10 10 10 10 10 10 10 10 10 10 10 10 10 10 10 10 10 10 10 10 10 10 10 10 10 10 10 10 10 10 10 10 10 10
10 10 11 11 10 10 10 10 10 10 10 10 10 10 10 10 10 10 10 10 10 10 10 10 10 10 10 10 10 10 10 10 10 10 10 10 10 10 10 10 10 10
10 10 11 11 11 11 10 10 10 10 10 10 10 10 10 10 10 10 10 10 10 10 10 10 10 10 10 10 10 10 10 10 10 10 10 10 10 10 10 10 10 10
11 11 11 11 11 11 10 10 10 10 10 10 10 10 10 10 10 10 10 10 10 10 10 10 10 10 10 10 10 10 10 10 10 10 10 10 10 10 10 10 10 10
11 11 11 11 11 10 10 10 10 10 10 10 10 10 10 10 10 10 10 10 10 10 10 10 10 10 10 10 10 10 10 10 10 10 10 10 10 10 10 10 10 10
11 11 11 11 11 11 10 10 10 11 11 10 10 10 10 10 10 10 10 10 10 10 10 10 10 10 10 10 10 10 10 10 10 10 10 10 10 10 10 10 10 10
11 11 11 11 11 11 10 10 10 11 11 10 10 10 10 10 10 10 10 10 10 10 10 10 10 10 10 10 10 10 10 10 10 10 10 10 10 10 10 10 10 10
10 10 10 10 10 10 10 10 10 10 10 10 10 10 10 10 10 10 10 10 10 10 10 10 10 10 10 10 10 10 10 10 10 10 10 10 10 10 10 10 10 10
11 10 10 10 10 10 10 10 10 10 10 10 10 10 10 10 10 10 10 10 10 10 10 11 11 10 10 10 10 10 10 10 10 10 10 10 10 10 10 10 10 10
11 11 10 10 10 11 10 10 10 10 10 10 10 10 10 10 10 10 10 10 10 10 11 11 11 11 11 11 10 10 10 10 10 10 10 10 10 10 10 10 10 10
10 10 10 10 11 11 11 11 11 11 10 10 10 10 10 10 10 10 10 10 10 10 11 11 11 11 11 11 11 11 10 10 10 10 10 10 10 10 10 10 10 10
10 10 10 11 11 11 11 11 11 11 11 11 11 11 10 10 10 10 10 10 10 10 11 11 11 11 11 11 11 11 11 11 11 11 11 11 11 11 11 11 11 11
10 10 10 11 11 11 11 11 11 11 11 11 11 11 11 11 11 10 10 10 10 10 11 11 11 11 11 11 11 11 11 11 11 11 11 11 11 11 11 11 11 11
10 10 10 10 10 10 10 11 11 11 11 11 11 11 11 11 11 11 11 10 10 10 11 11 11 11 11 11 11 11 11 11 11 11 11 11 11 11 11 11 11 11
10 10 10 11 11 11 11 10 11 11 11 11 11 11 11 11 11 11 11 11 11 11 11 11 11 11 11 11 11 11 11 11 11 11 11 11 12 12 12 12 11 11
11 11 10 11 11 11 11 11 10 10 11 11 11 11 11 11 11 11 11 11 11 11 11 11 11 11 11 11 11 11 11 11 11 11 11 11 12 12 12 12 12 12
11 11 10 10 11 10 10 11 10 10 10 10 10 11 11 11 12 12 12 12 11 11 11 11 11 11 11 11 11 11 11 11 11 11 11 11 12 12 12 12 12 12
10 10 10 10 10 10 10 10 10 10 10 10 10 10 11 11 11 12 12 12 12 12 12 12 12 12 12 12 11 11 11 11 11 11 11 12 12 12 12 12 12 12
10 10 10 10 10 10 10 10 10 10 9 9 9 10 10 11 11 11 12 12 12 12 12 12 12 12 12 12 12 12 12 12 12 12 12 12 12 12 12 12 12 12
10 10 10 10 11 11 10 10 10 10 10 9 9 9 10 10 10 11 11 12 12 12 12 13 13 13 13 13 12 12 12 12 12 12 13 13 13 13 13 13 13 13
Height
3235 3237 3238 3238 3240 3241 3242 3244 3245 3246 3248 3249 3249 3250 3251 3252 3252 3252 3253 3253 3254 3255 3255 3255 3256 3257 3257 3258 3258 3258 3258 3259 3259 3260 3260 3261 3261 3261 3262 3262 3263 3263
3234 3236 3237 3238 3239 3240 3241 3243 3244 3245 3247 3248 3249 3249 3250 3251 3252 3252 3253 3253 3254 3254 3255 3255 3256 3256 3257 3258 3258 3258 3259 3259 3259 3259 3260 3261 3261 3261 3262 3262 3263 3263
3233 3235 3236 3237 3238 3239 3240 3241 3243 3244 3245 3246 3248 3249 3249 3250 3251 3252 3252 3253 3253 3254 3254 3255 3255 3256 3257 3257 3258 3258 3259 3259 3259 3259 3260 3261 3261 3261 3262 3262 3263 3264
3232 3234 3235 3236 3237 3238 3239 3240 3241 3243 3244 3246 3247 3248 3248 3249 3250 3251 3252 3252 3253 3253 3254 3254 3255 3256 3256 3257 3258 3258 3259 3259 3259 3259 3260 3260 3261 3261 3262 3262 3263 3263
3231 3232 3233 3234 3235 3236 3237 3239 3240 3242 3243 3245 3246 3246 3247 3248 3249 3250 3251 3252 3252 3253 3253 3254 3254 3255 3256 3257 3257 3258 3258 3258 3259 3259 3259 3260 3261 3261 3262 3262 3263 3263
3229 3231 3232 3233 3234 3235 3237 3238 3239 3240 3242 3243 3244 3245 3246 3247 3248 3249 3250 3251 3252 3252 3253 3253 3254 3254 3255 3256 3257 3257 3258 3258 3258 3259 3259 3260 3260 3261 3261 3262 3262 3263
3227 3229 3230 3232 3233 3234 3235 3236 3237 3239 3240 3241 3243 3244 3245 3246 3247 3248 3249 3250 3251 3251 3252 3253 3253 3254 3254 3255 3256 3256 3257 3257 3258 3258 3258 3259 3259 3260 3261 3261 3262 3262
3225 3227 3228 3230 3231 3233 3234 3235 3236 3237 3238 3239 3241 3242 3244 3245 3245 3246 3247 3248 3249 3250 3251 3252 3252 3253 3254 3254 3255 3255 3256 3256 3257 3257 3258 3258 3259 3259 3260 3260 3261 3261
3222 3224 3226 3228 3229 3231 3232 3233 3235 3236 3236 3238 3239 3241 3242 3243 3244 3245 3246 3247 3248 3249 3250 3251 3251 3252 3252 3253 3254 3254 3255 3255 3256 3257 3257 3257 3258 3258 3259 3260 3260 3261
3220 3222 3224 3225 3227 3229 3230 3232 3233 3234 3235 3236 3237 3238 3240 3241 3242 3243 3244 3245 3246 3247 3248 3249 3250 3250 3251 3252 3253 3253 3254 3254 3255 3255 3256 3257 3257 3257 3258 3259 3259 3260
3218 3220 3222 3223 3225 3227 3228 3230 3231 3232 3233 3234 3235 3236 3238 3239 3240 3241 3243 3244 3245 3246 3247 3247 3248 3249 3250 3250 3251 3252 3252 3253 3254 3254 3255 3255 3256 3256 3257 3258 3258 3259
3216 3217 3219 3221 3223 3225 3226 3227 3229 3230 3231 3232 3233 3234 3236 3237 3238 3239 3241 3242 3243 3244 3245 3245 3246 3247 3248 3249 3249 3250 3251 3252 3252 3253 3254 3254 3255 3255 3256 3256 3257 3257
3213 3215 3217 3219 3221 3222 3224 3225 3226 3227 3229 3230 3231 3232 3233 3234 3235 3237 3238 3240 3241 3242 3243 3243 3244 3244 3245 3246 3247 3248 3249 3250 3251 3252 3252 3253 3254 3254 3254 3255 3256 3256
3211 3213 3214 3216 3217 3219 3221 3222 3224 3225 3226 3228 3229 3230 3231 3232 3233 3234 3236 3237 3238 3239 3240 3241 3242 3242 3243 3244 3245 3246 3247 3248 3249 3250 3250 3251 3252 3252 3253 3253 3254 3255
3209 3210 3212 3213 3215 3216 3218 3219 3221 3222 3223 3225 3226 3227 3228 3229 3230 3231 3233 3234 3235 3236 3237 3238 3239 3240 3240 3241 3242 3243 3244 3246 3247 3247 3248 3249 3249 3250 3250 3251 3252 3253
3206 3208 3210 3211 3212 3213 3215 3216 3217 3219 3220 3221 3223 3224 3225 3226 3227 3228 3230 3231 3232 3233 3234 3235 3235 3237 3238 3239 3241 3241 3242 3243 3244 3244 3245 3246 3247 3247 3248 3248 3249 3250
3203 3205 3207 3208 3209 3211 3212 3213 3214 3215 3216 3218 3219 3221 3222 3223 3224 3225 3226 3228 3229 3230 3231 3231 3232 3233 3235 3237 3238 3239 3240 3240 3241 3242 3242 3243 3244 3244 3245 3246 3246 3247
3200 3202 3203 3204 3206 3208 3209 3210 3210 3211 3212 3214 3215 3217 3218 3219 3220 3222 3223 3224 3225 3226 3227 3228 3229 3230 3232 3234 3235 3236 3237 3238 3238 3239 3239 3240 3241 3241 3242 3243 3244 3244
3196 3198 3199 3201 3203 3204 3205 3206 3207 3208 3209 3210 3212 3213 3214 3215 3217 3218 3220 3221 3222 3223 3224 3225 3226 3227 3229 3230 3232 3233 3234 3235 3235 3236 3236 3237 3238 3238 3239 3240 3241 3241
3191 3193 3195 3197 3199 3200 3201 3202 3204 3205 3206 3207 3208 3209 3210 3211 3213 3215 3216 3217 3218 3219 3221 3222 3223 3224 3225 3227 3228 3230 3231 3231 3232 3232 3233 3234 3234 3235 3236 3237 3237 3238
3188 3189 3191 3193 3194 3196 3197 3198 3200 3201 3203 3204 3204 3205 3206 3208 3210 3211 3212 3214 3215 3216 3217 3218 3219 3221 3222 3223 3225 3226 3227 3228 3228 3228 3229 3230 3231 3231 3232 3233 3234 3235
3186 3187 3188 3189 3190 3191 3193 3194 3196 3197 3199 3200 3201 3202 3203 3204 3206 3207 3208 3210 3211 3212 3213 3214 3216 3218 3219 3220 3222 3223 3224 3224 3224 3224 3225 3226 3227 3228 3229 3230 3230 3231
3182 3183 3184 3185 3186 3186 3188 3190 3191 3192 3194 3195 3196 3197 3199 3201 3202 3204 3205 3206 3208 3208 3209 3211 3213 3214 3215 3217 3218 3219 3219 3220 3220 3221 3221 3222 3223 3224 3225 3225 3226 3227
3178 3179 3180 3181 3182 3183 3184 3185 3185 3186 3187 3189 3192 3193 3195 3197 3199 3200 3202 3203 3204 3205 3206 3208 3209 3211 3212 3213 3214 3215 3215 3216 3216 3217 3217 3218 3219 3220 3221 3221 3222 3223
3174 3176 3178 3179 3179 3180 3180 3179 3180 3181 3182 3184 3186 3188 3190 3192 3194 3197 3198 3200 3201 3202 3203 3205 3206 3207 3208 3209 3210 3211 3211 3212 3212 3213 3213 3214 3215 3216 3217 3218 3218 3220
3171 3172 3174 3175 3177 3177 3176 3175 3176 3180 3182 3184 3185 3187 3188 3189 3190 3192 3195 3197 3198 3199 3200 3201 3203 3204 3204 3205 3206 3207 3208 3208 3209 3209 3210 3211 3212 3213 3213 3214 3215 3216
Wind_Speed
18 18 18 18 16 16 16 17 17 16 14 14 13 13 13 12 11 11 10 9 8 7 6 6 6 5 5 5 5 5 6 6 7 8 7 7 7 7 6 6 6 7
18 18 18 18 17 16 16 17 18 17 16 15 15 14 14 13 12 11 11 10 9 8 7 6 6 6 5 5 5 5 5 5 6 7 7 7 7 7 6 6 6 6
18 18 18 18 18 17 17 18 18 18 17 17 16 15 15 14 13 12 11 11 10 9 8 7 6 6 6 6 6 5 5 5 5 6 6 6 6 6 6 6 5 5
18 18 18 19 19 19 19 19 18 18 18 18 17 16 16 15 14 13 12 11 11 10 9 8 7 7 6 6 6 6 6 5 5 5 5 5 5 5 5 6 6 5
18 19 19 20 21 21 20 20 19 19 19 18 18 17 16 15 14 14 13 12 11 11 10 10 9 8 7 7 7 7 6 6 6 6 5 5 5 5 5 5 5 5
19 19 20 20 21 21 21 21 20 20 19 19 19 18 18 17 16 14 14 13 12 12 11 11 10 10 9 9 8 8 7 7 7 7 6 6 6 6 6 5 5 5
19 20 20 20 20 21 22 22 22 21 20 20 20 19 19 18 17 16 15 14 14 13 12 12 11 11 11 11 10 9 9 8 8 8 8 7 7 7 7 6 6 5
21 21 21 21 20 21 22 23 23 22 22 21 20 20 20 20 19 18 17 16 15 14 13 13 12 12 12 12 11 11 10 10 9 9 9 9 8 8 8 7 7 6
23 23 22 21 21 21 21 22 23 23 23 22 21 21 21 21 20 20 19 18 17 16 15 14 14 13 13 13 12 12 12 11 11 11 10 10 10 10 10 9 8 8
26 25 24 23 22 21 21 21 22 23 24 23 22 22 22 22 22 22 21 20 19 18 17 16 15 15 15 14 14 14 13 13 12 12 12 12 11 11 11 11 10 10
28 26 25 24 23 22 21 21 22 23 23 23 24 24 23 23 23 23 22 21 20 20 19 19 18 17 17 16 16 16 15 14 14 13 13 13 13 13 12 12 12 12
29 28 27 26 25 24 23 22 22 23 23 23 24 24 24 24 24 24 24 23 22 21 21 21 20 20 19 18 18 18 18 17 16 15 15 14 14 14 14 14 13 13
29 29 28 28 27 26 25 24 24 24 23 24 24 25 25 25 25 24 24 24 23 23 23 22 22 22 22 21 21 20 20 19 18 17 17 16 16 16 16 16 15 15
29 29 29 29 28 28 27 26 26 25 25 24 25 25 25 25 25 25 24 24 24 25 25 25 24 24 24 23 23 23 22 21 20 20 19 18 18 18 18 18 17 17
30 30 29 29 29 29 29 28 28 27 27 27 27 26 26 26 26 26 26 25 25 25 26 26 27 26 26 25 25 24 24 23 22 22 21 21 20 20 20 20 20 19
31 31 30 30 30 31 30 30 30 30 29 29 29 28 28 28 28 28 28 27 26 26 26 27 28 28 28 27 26 26 25 25 24 24 24 23 23 23 23 23 22 22
32 31 30 30 31 31 31 32 32 32 32 31 31 31 30 30 30 30 30 29 28 28 28 28 28 28 28 28 27 27 27 27 27 27 26 26 26 26 25 25 24 24
31 32 32 31 31 31 32 33 33 33 33 33 33 33 32 33 33 32 32 31 30 30 30 30 29 28 27 27 27 28 28 29 29 29 29 28 28 28 27 26 26 26
30 32 33 32 32 32 32 33 34 34 34 34 34 34 34 34 34 34 33 33 33 32 32 31 30 29 28 27 26 27 27 28 29 30 30 29 29 29 28 28 28 28
29 30 32 33 33 33 33 34 35 34 34 35 35 35 36 35 34 34 34 34 34 34 33 32 31 30 29 27 27 27 27 28 29 30 30 30 29 29 29 29 28 28
28 29 32 32 33 34 34 35 35 35 35 35 35 36 36 35 34 35 35 34 34 34 34 33 32 30 29 28 27 28 28 29 30 31 31 31 30 29 29 29 29 29
30 30 31 33 34 34 35 35 35 35 35 35 36 36 36 35 35 35 35 34 33 34 34 33 31 30 29 28 27 28 29 31 31 31 31 31 30 29 29 29 29 29
32 32 31 33 34 35 36 36 36 36 35 35 36 36 36 35 35 35 35 34 33 33 33 32 30 29 29 28 27 28 30 31 32 32 32 31 31 30 29 29 29 29
29 30 30 32 34 35 36 37 37 36 36 36 37 37 36 36 35 35 35 34 33 33 32 31 29 29 29 29 28 29 31 31 32 32 32 32 31 30 30 30 30 29
25 26 28 31 33 35 36 37 37 36 35 34 35 36 36 35 35 35 35 34 33 32 31 30 29 29 29 29 29 30 31 31 31 32 32 31 30 30 30 30 30 29
22 23 25 29 32 34 36 36 36 35 35 33 31 32 35 35 34 34 34 34 32 31 30 29 29 29 29 29 29 30 30 31 31 31 30 29 29 29 30 30 29 29
Wind_Direction
204 204 204 205 203 202 203 204 204 203 200 200 198 196 194 188 181 180 180 178 177 173 171 172 170 171 174 172 167 160 157 158 154 154 157 158 155 150 148 148 152 158
206 205 205 206 205 203 204 207 208 206 202 201 200 199 199 195 187 186 188 186 184 178 172 172 174 180 185 184 180 169 160 160 159 155 154 155 153 150 150 150 151 159
208 207 206 206 206 204 206 209 210 208 206 204 203 203 203 199 193 192 195 195 192 187 181 178 177 185 192 195 193 182 171 169 169 163 157 158 156 153 155 155 156 161
209 208 206 206 206 206 207 210 211 211 210 208 206 207 207 204 199 197 199 203 203 197 192 187 186 190 197 202 203 196 186 183 184 181 175 171 167 165 167 167 168 172
212 210 208 207 207 208 210 211 213 214 214 212 209 209 209 207 206 203 202 206 210 208 202 196 195 198 202 207 211 209 202 196 196 198 198 193 186 182 183 184 182 181
214 212 211 210 208 208 211 212 214 216 218 217 215 212 210 210 210 209 208 209 212 214 211 206 203 204 209 213 215 217 214 210 209 211 211 210 207 202 199 201 200 195
216 215 214 214 211 209 211 213 215 217 219 220 219 217 213 212 213 212 213 214 215 217 218 217 213 211 214 217 219 222 223 220 220 222 224 223 223 222 218 217 217 213
217 217 215 215 214 213 212 214 216 218 219 221 221 220 218 216 216 215 214 216 217 218 220 223 222 220 220 222 224 226 227 227 226 228 231 231 232 233 233 232 232 231
214 215 215 215 215 215 216 216 217 218 221 222 222 222 221 220 220 219 218 217 219 220 221 224 226 226 225 226 227 230 231 231 231 231 233 234 235 237 239 240 241 242
213 214 214 214 215 216 217 218 219 221 222 223 223 224 224 223 223 224 223 222 223 223 223 224 226 228 228 227 228 231 233 233 234 235 236 237 238 239 242 243 243 244
214 215 215 215 215 216 217 218 220 223 223 224 225 227 227 226 226 227 228 228 228 229 228 226 226 227 228 227 227 229 231 233 235 236 238 241 242 244 246 248 248 249
214 216 217 217 217 217 218 219 221 224 225 225 227 229 229 230 230 230 231 231 231 232 232 230 228 227 227 226 227 228 229 232 234 235 238 241 243 246 249 250 252 253
214 216 218 219 220 220 220 220 222 225 225 225 227 230 231 232 233 233 233 232 233 234 234 233 231 229 228 227 228 229 230 233 235 236 238 239 242 245 247 249 251 252
216 217 218 219 220 221 221 221 222 225 225 225 226 229 232 233 235 236 235 233 233 233 234 235 234 233 231 230 229 231 232 233 236 238 239 240 242 244 246 248 249 251
217 218 219 220 221 222 222 223 223 225 226 227 227 227 230 233 234 236 236 235 234 234 234 235 236 236 235 233 232 233 234 235 238 239 240 241 241 242 245 247 248 250
217 218 219 222 222 222 222 224 225 226 227 228 228 228 229 231 234 235 237 236 236 236 237 237 237 237 238 237 236 237 238 239 241 242 243 244 243 242 243 245 247 249
216 216 218 223 225 224 224 224 225 227 228 229 229 229 229 230 233 235 236 237 237 237 238 239 240 240 240 240 240 241 242 243 245 245 245 246 246 245 244 245 246 248
216 216 217 222 226 227 227 227 227 228 229 230 231 232 232 232 233 235 236 237 238 239 239 240 242 244 244 243 242 242 243 245 247 248 248 248 248 248 248 247 247 248
212 215 218 221 224 227 229 230 230 230 230 231 231 232 234 234 234 235 236 237 239 241 242 243 244 245 246 246 245 245 245 247 249 250 250 251 251 251 251 251 250 251
210 212 216 219 222 225 229 232 234 234 234 233 233 233 234 235 236 237 237 238 240 242 244 245 246 246 247 247 247 247 248 249 251 252 252 252 253 253 253 254 254 254
211 211 214 217 220 223 226 230 233 235 237 237 237 237 236 235 235 236 238 239 240 243 245 246 248 249 249 249 248 248 249 250 252 253 254 254 254 254 255 255 256 257
211 212 213 216 219 223 225 227 229 233 236 238 239 239 238 237 236 236 238 239 240 242 244 246 248 249 250 250 249 248 249 250 252 253 254 256 256 257 257 257 258 258
212 212 213 214 217 221 224 225 227 228 231 235 238 240 239 239 238 237 238 239 240 241 243 245 247 248 249 249 248 247 248 249 251 253 254 256 257 257 258 258 258 258
220 219 217 216 217 219 222 223 224 224 224 226 232 236 239 240 240 240 240 241 241 242 242 243 244 245 245 245 245 245 246 247 249 251 252 254 254 255 256 257 257 257
227 226 224 222 221 221 223 225 226 225 223 223 225 228 233 237 240 242 243 244 244 244 243 242 242 243 243 243 242 242 243 245 247 248 250 252 253 254 255 256 256 256
239 230 227 226 226 227 229 231 232 230 229 230 231 230 231 233 235 240 245 247 247 246 245 242 241 242 243 243 242 242 243 244 246 248 250 252 253 255 256 256 257 257